FENGYUN 1C DEB, 31040

Orbit data source: Space-Track

FENGYUN 1C DEB, 31040 is space debris in SSO originally from a launch on Mon, 10 May 1999 UTC launched from the Taiyaun Space Center, China (TSC). Fengyun 1C debris stems from the Chinese weather satellite Fengyun-1C, which was intentionally destroyed by a Chinese anti-satellite missile in 2007. This event dramatically increased the amount of space debris, with thousands of trackable fragments posing hazards to satellites and human spaceflight. The Fengyun 1C debris cloud has become a focal point in discussions about space sustainability and the need for international regulations to prevent the creation of new debris.

Loading next visibility...
Identifier
31040, 1999-025BEJ
Orbit
SSO
Country
Flag of CNCN / PRC
Related business
Manufacturer
Unknown
Mission
Spacecraft
Bus & Motor
Unknown
Mass
Unknown
Launch date (UTC)
1999-05-10 (27 years ago)
Launch vehicle
Unknown
Launch site
Taiyaun Space Center, China (TSC)
Object type
Payload
Rocket body
Debris
Shape & HBR
Unknown shape, 0.1 m
Radar Cross Section
Small (<0.1 m²)

Expand to show TLE details & history
Last TLE update: 12 hours ago

TLE from 12 hours ago
0 FENGYUN 1C DEB
1 31040U 99025BEJ 26166.94638249  .00000429  00000-0  22633-3 0  9993
2 31040  98.6707 157.3384 0063172  23.8300  31.4968 14.17928952993317
Epoch: 2026-06-15T22:42Z
TLE epoch observation values (Epoch: 2026-06-15T22:42:47.447Z)
Latitude
54.85979°
Longitude
-100.0301°
Altitude
802.638 km
Speed
7.477 km/s
True Right ascension
09h 39m 34s
True Declination
54° 41' 56"
Sunlit
Object was in daylight at epoch
Visualization orbit readout
Latitude
Unknown
Longitude
Unknown
Altitude
Unknown
Speed
Unknown
Apparent Right ascension
Unknown
Apparent Declination
Unknown
Sunlit
N/A
Visualization observer readout
Local Sidereal Time
21:16:47
Azimuth
Unknown
Elevation
Unknown
Doppler factor
Unknown
Orbital elements
Apogee altitude
875.057 km
Perigee altitude
783.993 km
Semi-major axis
7,207.662 km
Eccentricity
0.00632
Inclination
98.6707°
RAAN
157.3384°
Arg. of periapsis
23.83°
True anomaly
31.87756°
Mean anomaly
31.4968°
Eccentric anomaly
31.68692°
Mean motion
3.54692 °/min
Orbital period
101.5 mins
BSTAR
0.00022633
Loading maneuver chart data...
Computing Atmospheric mass density...

Documentation

Showing up to 5 results
|